User: anonymous   Login
Location: Unspecified
(0.0000°N, 0.0000°E)
Time: 17:11:11
(UTC+01:00)
Language:

ARIANE 5 R/B - Orbit

View from above orbital plane
View from above orbital plane
View from above satellite
View from above satellite

Ground track
Ground track

The orbit data is extracted from the following two-line orbital elements,

1 27387U 02009B   14330.53643000  .00000201  00000-0  83345-4 0  3286
2 27387 098.3369 287.7100 0033223 045.9076 066.8890 14.35767176667560
Epoch (UTC): 26 November 2014 12:52:27
Eccentricity: 0.0033223
inclination: 98.3369°
perigee height: 749 km
apogee height: 796 km
right ascension of ascending node: 287.7100°
argument of perigee: 45.9076°
revolutions per day: 14.35767176
mean anomaly at epoch: 66.8890°
orbit number at epoch: 66756

The dashed part of the orbit path shows where the satellite is in the earth's shadow,  

DLR